Location: B�hl
(48.6968°N, 8.1352°E)
Time: 22:08:15
(UTC+00:00)

Cosmos 1295 Rocket - Pass Details

Date: 08 March 2021
Orbit: 943 x 994 km, 82.9° (Epoch: 14 April)

Event Time Altitude Azimuth Distance (km) Brightness Sun altitude
Rises 17:46:52 0° 181° (S) 3,665 7.6 -4.9°
Reaches altitude 10° 17:49:23 10° 180° (S) 2,714 6.9 -5.3°
Maximum altitude 17:55:35 76° 96° (E) 997 4.5 -6.3°
Drops below altitude 10° 18:01:44 10° 12° (NNE) 2,698 6.7 -7.3°
Sets 18:04:14 0° 11° (N) 3,641 7.4 -7.8°
